Weather in Markovo

Russia / Vladimir Oblast     55°51′47″N   39°17′33″E
temp.,
°C
wind,
m/s
gust,
m/s
humid.,
%
clouds,
%
prec.,
mm/h
press.,
hPa
HPBL,
m
28 june, tue
tue2800:00+20nnw228228 0.0 101826
03:00+17ne28920 0.0 1019175
06:00+18nne39715 0.0 1020318
09:00+21nne57466 0.0 1020858
12:00+23nne56365 0.0 10211446
15:00+23nne56335 0.0 10211749
18:00+21nne45400 0.0 10221599
21:00+14nne39680 0.0 1023204
29 june, wed
wed2900:00+11ne26780 0.0 1024114
03:00+9ene22770 0.0 102437
06:00+12ne23680 0.0 1024137
09:00+18ne23430 0.0 10241030
12:00+21ne33322 0.0 10231844
15:00+22ne32314 0.0 10212084
18:00+21ne33380 0.0 10211502
21:00+14ne226655 0.0 102127
30 june, thu
thu3000:00+12nne227713 0.0 102114
03:00+10n22815 0.0 102114
06:00+13nw246948 0.0 1021122
09:00+19nnw354684 0.0 1020813
12:00+23nnw4631100 0.0 10191893
15:00+25n4630100 0.0 10182194
18:00+23nne474136 0.0 10182017
21:00+17nnw236891 0.0 101956
1 july, fri
fri100:00+14nnw26820 0.0 1019101
03:00+12n22882 0.0 102040
06:00+15nne23740 0.0 1021138
09:00+21ne23470 0.0 1021822
12:00+24nne35305 0.0 10201920
15:00+25nne45285 0.0 10202036
18:00+24ne34374 0.0 10191303
21:00+17ene11605 0.0 102011
2 july, sat
sat200:00+15wsw11613 0.0 102011
03:00+14w226633 0.0 102015
06:00+16w2567100 0.0 1020134
09:00+24wnw245397 0.0 1019525
12:00+29wnw4536100 0.0 10172836
15:00+29nw4632100 0.0 10162709
18:00+28nnw473962 0.0 10151969
21:00+21nnw22681 0.0 101532